Weather History for Bremerton, WA

Change the Weather History Date:

Monday, February 6, 2012

  Actual Average Record
Temperature  
Mean Temperature 44 °F -  
Max Temperature 57 °F 44 °F 57 °F (2012)
Min Temperature 30 °F 31 °F 15 °F (2014)
Degree Days  
Heating Degree Days 22    
Moisture  
Dew Point 26 °F    
Average Humidity 50    
Maximum Humidity 81    
Minimum Humidity 29    
Precipitation  
Precipitation 0.00 in - - ()
Sea Level Pressure  
Sea Level Pressure 30.05 in    
Wind  
Wind Speed 7 mph (NE)    
Max Wind Speed 10 mph    
Max Gust Speed -    
Visibility 10 miles    
Events      
Averages and records for this station are not official NWS values.
T = Trace of Precipitation, MM = Missing Value Source: NWS Daily Summary

Daily Weather History Graph

Daily Weather History Graph

Search for Another Location

Airport:

Trip Planner

Search our weather history database for the weather conditions in past years. The results will help you decide how hot, cold, wet, or windy it might be!

Date:

Astronomy

Feb. 06, 2012 Rise Set
Actual Time 7:31 AM PST 5:19 PM PST
Civil Twilight 6:58 AM PST 5:52 PM PST
Nautical Twilight 6:22 AM PST 6:28 PM PST
Astronomical Twilight 5:46 AM PST 7:04 PM PST
Moon 4:29 PM PST (2/6) 6:28 AM PST (2/6)
Length of Visible Light 10h 53m
Length of Day
9h 48m
Waxing Gibbous, 99% of the Moon is Illuminated
Feb 6
Waxing Gibbous
Feb 7
Full
Feb 14
Last Quarter
Feb 21
New
Feb 29
First Quarter

Hourly Weather History & Observations

Time (PST) Temp. Windchill Dew Point Humidity Pressure Visibility Wind Dir Wind Speed Gust Speed Precip Events Conditions
12:15 AM 33.8 °F 28.6 °F 28.4 °F 81% 30.15 in 10.0 mi NE 5.8 mph - N/A   Clear
12:35 AM 35.6 °F 29.9 °F 28.4 °F 75% 30.14 in 10.0 mi NE 6.9 mph - N/A   Clear
12:55 AM 37.4 °F 32.1 °F 26.6 °F 65% 30.13 in 10.0 mi NE 6.9 mph - N/A   Clear
1:15 AM 39.2 °F 34.2 °F 26.6 °F 61% 30.14 in 10.0 mi NE 6.9 mph - N/A   Clear
1:35 AM 37.4 °F 30.3 °F 26.6 °F 65% 30.12 in 10.0 mi NE 10.4 mph - N/A   Clear
1:55 AM 35.6 °F 29.9 °F 28.4 °F 75% 30.13 in 10.0 mi NNE 6.9 mph - N/A   Clear
2:15 AM 35.6 °F 29.2 °F 26.6 °F 70% 30.12 in 10.0 mi NE 8.1 mph - N/A   Clear
2:35 AM 37.4 °F 34.9 °F 26.6 °F 65% 30.13 in 10.0 mi NE 3.5 mph - N/A   Clear
2:55 AM 39.2 °F - 26.6 °F 61% 30.11 in 10.0 mi North - - N/A   Clear
3:15 AM 39.2 °F 33.6 °F 26.6 °F 61% 30.12 in 10.0 mi NE 8.1 mph - N/A   Clear
3:35 AM 39.2 °F 34.2 °F 26.6 °F 61% 30.11 in 10.0 mi NE 6.9 mph - N/A   Clear
3:55 AM 37.4 °F 32.8 °F 26.6 °F 65% 30.11 in 10.0 mi NE 5.8 mph - N/A   Clear
4:15 AM 39.2 °F 33.6 °F 26.6 °F 61% 30.10 in 10.0 mi NE 8.1 mph - N/A   Clear
4:35 AM 39.2 °F 35.9 °F 26.6 °F 61% 30.10 in 10.0 mi NE 4.6 mph - N/A   Clear
4:55 AM 35.6 °F 30.7 °F 24.8 °F 65% 30.10 in 10.0 mi NE 5.8 mph - N/A   Clear
5:15 AM 37.4 °F 33.8 °F 26.6 °F 65% 30.08 in 10.0 mi NNE 4.6 mph - N/A   Clear
5:35 AM 37.4 °F 32.1 °F 26.6 °F 65% 30.09 in 10.0 mi NNE 6.9 mph - N/A   Clear
5:55 AM 35.6 °F 30.7 °F 24.8 °F 65% 30.08 in 10.0 mi NE 5.8 mph - N/A   Clear
6:15 AM 37.4 °F 33.8 °F 24.8 °F 60% 30.07 in 10.0 mi NE 4.6 mph - N/A   Clear
6:35 AM 37.4 °F 32.8 °F 24.8 °F 60% 30.08 in 10.0 mi NE 5.8 mph - N/A   Clear
6:55 AM 35.6 °F 30.7 °F 24.8 °F 65% 30.08 in 10.0 mi NE 5.8 mph - N/A   Clear
7:15 AM 35.6 °F 30.7 °F 23.0 °F 60% 30.07 in 10.0 mi NNE 5.8 mph - N/A   Clear
7:35 AM 30.2 °F 26.7 °F 21.2 °F 69% 30.08 in 10.0 mi NNE 3.5 mph - N/A   Clear
7:55 AM 32.0 °F 28.7 °F 23.0 °F 69% 30.07 in 10.0 mi NNE 3.5 mph - N/A   Clear
8:15 AM 33.8 °F 29.6 °F 24.8 °F 70% 30.07 in 10.0 mi NE 4.6 mph - N/A   Clear
8:35 AM 39.2 °F 34.2 °F 26.6 °F 61% 30.07 in 10.0 mi NNE 6.9 mph - N/A   Clear
8:55 AM 39.2 °F 34.2 °F 26.6 °F 61% 30.07 in 10.0 mi NNE 6.9 mph - N/A   Clear
9:15 AM 44.6 °F 40.7 °F 26.6 °F 49% 30.06 in 10.0 mi NE 6.9 mph - N/A   Clear
9:35 AM 46.4 °F 42.4 °F 26.6 °F 46% 30.06 in 10.0 mi NNE 8.1 mph - N/A   Clear
9:55 AM 46.4 °F 42.4 °F 26.6 °F 46% 30.07 in 10.0 mi NE 8.1 mph - N/A   Clear
10:15 AM 48.2 °F - 26.6 °F 43% 30.06 in 10.0 mi NE 10.4 mph - N/A   Clear
10:35 AM 48.2 °F - 26.6 °F 43% 30.07 in 10.0 mi NE 9.2 mph - N/A   Clear
10:55 AM 51.8 °F - 26.6 °F 38% 30.06 in 10.0 mi NE 10.4 mph - N/A   Clear
11:15 AM 53.6 °F - 26.6 °F 35% 30.06 in 10.0 mi North 6.9 mph - N/A   Clear
11:35 AM 53.6 °F - 24.8 °F 33% 30.04 in 10.0 mi NNE 8.1 mph - N/A   Clear
11:55 AM 53.6 °F - 24.8 °F 33% 30.04 in 10.0 mi NNE 8.1 mph - N/A   Clear
12:15 PM 53.6 °F - 24.8 °F 33% 30.03 in 10.0 mi NNE 8.1 mph - N/A   Clear
12:35 PM 55.4 °F - 26.6 °F 33% 30.03 in 10.0 mi North 8.1 mph - N/A   Clear
12:55 PM 55.4 °F - 26.6 °F 33% 30.02 in 10.0 mi NNE 8.1 mph - N/A   Clear
1:15 PM 57.2 °F - 24.8 °F 29% 30.01 in 10.0 mi NE 8.1 mph - N/A   Clear
1:35 PM 57.2 °F - 24.8 °F 29% 30.00 in 10.0 mi NE 10.4 mph - N/A   Clear
1:55 PM 57.2 °F - 24.8 °F 29% 29.99 in 10.0 mi NNE 9.2 mph - N/A   Clear
2:15 PM 57.2 °F - 24.8 °F 29% 29.98 in 10.0 mi NNE 10.4 mph - N/A   Clear
2:35 PM 57.2 °F - 24.8 °F 29% 29.98 in 10.0 mi NNE 9.2 mph - N/A   Clear
2:55 PM 57.2 °F - 26.6 °F 31% 29.98 in 10.0 mi NNE 6.9 mph - N/A   Clear
3:15 PM 57.2 °F - 26.6 °F 31% 29.97 in 10.0 mi NE 8.1 mph - N/A   Clear
3:35 PM 57.2 °F - 26.6 °F 31% 29.97 in 10.0 mi NNE 9.2 mph - N/A   Clear
3:55 PM 55.4 °F - 26.6 °F 33% 29.97 in 10.0 mi NNE 9.2 mph - N/A   Clear
4:15 PM 55.4 °F - 26.6 °F 33% 29.95 in 10.0 mi NNE 6.9 mph - N/A   Clear
4:35 PM 53.6 °F - 26.6 °F 35% 29.96 in 10.0 mi NNE 8.1 mph - N/A   Clear
4:55 PM 51.8 °F - 24.8 °F 35% 29.96 in 10.0 mi NE 9.2 mph - N/A   Clear
5:15 PM 48.2 °F - 24.8 °F 40% 29.96 in 10.0 mi NE 8.1 mph - N/A   Clear
5:35 PM 48.2 °F - 24.8 °F 40% 29.96 in 10.0 mi NNE 8.1 mph - N/A   Clear
5:55 PM 46.4 °F 43.5 °F 24.8 °F 43% 29.96 in 10.0 mi NNE 5.8 mph - N/A   Clear
6:15 PM 44.6 °F 42.2 °F 23.0 °F 43% 29.96 in 10.0 mi NNE 4.6 mph - N/A   Clear
6:35 PM 44.6 °F 40.7 °F 24.8 °F 46% 29.96 in 10.0 mi NE 6.9 mph - N/A   Clear
6:55 PM 46.4 °F 41.5 °F 21.2 °F 37% 29.96 in 10.0 mi NE 10.4 mph - N/A   Clear
7:15 PM 44.6 °F 39.7 °F 19.4 °F 37% 29.95 in 10.0 mi NE 9.2 mph - N/A   Clear
7:35 PM 46.4 °F 42.4 °F 21.2 °F 37% 29.95 in 10.0 mi NE 8.1 mph - N/A   Clear
7:55 PM 44.6 °F 41.4 °F 19.4 °F 37% 29.96 in 10.0 mi NE 5.8 mph - N/A   Clear
8:15 PM 44.6 °F 40.2 °F 21.2 °F 39% 29.95 in 10.0 mi NE 8.1 mph - N/A   Clear
8:35 PM 44.6 °F - 21.2 °F 39% 29.94 in 10.0 mi North - - N/A   Clear
8:55 PM 44.6 °F - 21.2 °F 39% 29.96 in 10.0 mi North - - N/A   Clear
9:15 PM 42.8 °F 39.3 °F 19.4 °F 39% 29.96 in 10.0 mi NNE 5.8 mph - N/A   Clear
9:35 PM 39.2 °F 37.0 °F 19.4 °F 45% 29.95 in 10.0 mi NNE 3.5 mph - N/A   Clear
9:55 PM 37.4 °F - 19.4 °F 48% 29.96 in 10.0 mi North - - N/A   Clear
10:15 PM 30.2 °F - 17.6 °F 60% 29.95 in 10.0 mi Calm Calm - N/A   Clear
10:35 PM 30.2 °F - 19.4 °F 64% 29.97 in 10.0 mi Calm Calm - N/A   Clear
10:55 PM 30.2 °F - 21.2 °F 69% 29.96 in 10.0 mi North - - N/A   Clear
11:15 PM 35.6 °F 32.8 °F 21.2 °F 56% 29.95 in 10.0 mi NNE 3.5 mph - N/A   Clear
11:35 PM 37.4 °F 33.8 °F 21.2 °F 52% 29.95 in 10.0 mi ENE 4.6 mph - N/A   Clear
11:55 PM 39.2 °F 35.9 °F 19.4 °F 45% 29.94 in 10.0 mi NNE 4.6 mph - N/A   Clear